Time,TemperatureF,DewpointF,PressureIn,WindDirection,WindDirectionDegrees,WindSpeedMPH,WindSpeedGustMPH,Humidity,HourlyPrecipIn,Conditions,Clouds,dailyrainin,SoftwareType,DateUTC
2013-03-07 00:00:00,29.1,24.5,0.00,SSE,158,1.5,1.5,83,0.00,,,0.00,WUHU216HW,2013-03-07 05:00:00,
2013-03-07 00:01:00,29.1,24.5,0.00,SSE,158,0.0,1.5,83,0.00,,,0.00,WUHU216HW,2013-03-07 05:01:00,
2013-03-07 00:06:00,29.1,24.5,0.00,West,270,0.0,1.5,83,0.00,,,0.00,WUHU216HW,2013-03-07 05:06:00,
2013-03-07 00:11:00,29.1,24.5,0.00,West,270,0.0,0.0,83,0.00,,,0.00,WUHU216HW,2013-03-07 05:11:00,
2013-03-07 00:16:00,29.1,24.5,0.00,West,270,0.0,0.0,83,0.00,,,0.00,WUHU216HW,2013-03-07 05:16:00,
2013-03-07 00:21:00,29.1,24.5,0.00,NW,315,0.0,0.0,83,0.00,,,0.00,WUHU216HW,2013-03-07 05:21:00,
2013-03-07 00:26:00,28.9,24.5,0.00,SSW,203,0.0,0.0,83,0.00,,,0.00,WUHU216HW,2013-03-07 05:26:00,
2013-03-07 00:31:00,28.9,24.5,0.00,SSE,158,2.0,6.4,83,0.00,,,0.00,WUHU216HW,2013-03-07 05:31:00,
2013-03-07 00:36:00,28.9,24.4,0.00,ESE,113,0.0,6.4,83,0.00,,,0.00,WUHU216HW,2013-03-07 05:36:00,
2013-03-07 00:41:00,28.9,24.4,0.00,ENE,68,0.0,2.2,83,0.00,,,0.00,WUHU216HW,2013-03-07 05:41:00,
2013-03-07 00:46:00,28.9,24.4,0.00,South,180,0.0,2.2,83,0.00,,,0.00,WUHU216HW,2013-03-07 05:46:00,
2013-03-07 00:51:00,28.9,24.4,0.00,South,180,0.0,2.6,83,0.00,,,0.00,WUHU216HW,2013-03-07 05:51:00,
2013-03-07 00:56:00,28.9,24.4,0.00,South,180,0.0,2.6,83,0.00,,,0.00,WUHU216HW,2013-03-07 05:56:00,
2013-03-07 01:01:00,28.9,24.4,0.00,South,180,0.0,0.0,83,0.00,,,0.00,WUHU216HW,2013-03-07 06:01:00,
2013-03-07 01:06:00,28.9,24.4,0.00,South,180,0.0,0.0,83,0.00,,,0.00,WUHU216HW,2013-03-07 06:06:00,
2013-03-07 01:11:00,28.9,24.4,0.00,South,180,0.0,0.0,83,0.00,,,0.00,WUHU216HW,2013-03-07 06:11:00,
2013-03-07 01:16:00,28.9,24.4,0.00,SW,225,0.0,0.0,83,0.00,,,0.00,WUHU216HW,2013-03-07 06:16:00,
2013-03-07 01:21:00,28.9,24.4,0.00,SW,225,0.0,0.0,83,0.00,,,0.00,WUHU216HW,2013-03-07 06:21:00,
2013-03-07 01:26:00,29.1,24.5,0.00,SW,225,0.0,0.0,83,0.00,,,0.00,WUHU216HW,2013-03-07 06:26:00,
2013-03-07 01:31:00,28.9,24.4,0.00,SW,225,0.0,0.0,83,0.00,,,0.00,WUHU216HW,2013-03-07 06:31:00,
2013-03-07 01:36:00,28.9,24.4,0.00,South,180,0.0,0.0,83,0.00,,,0.00,WUHU216HW,2013-03-07 06:36:00,
2013-03-07 01:41:00,28.9,24.4,0.00,SE,135,3.1,3.1,83,0.00,,,0.00,WUHU216HW,2013-03-07 06:41:00,
2013-03-07 01:46:00,28.9,24.4,0.00,SSE,158,0.0,3.1,83,0.00,,,0.00,WUHU216HW,2013-03-07 06:46:00,
2013-03-07 01:51:00,28.9,24.4,0.00,South,180,0.0,0.0,83,0.00,,,0.00,WUHU216HW,2013-03-07 06:51:00,
2013-03-07 01:56:00,28.9,24.4,0.00,SW,225,0.0,0.0,83,0.00,,,0.00,WUHU216HW,2013-03-07 06:56:00,
2013-03-07 02:01:00,28.9,24.4,0.00,West,270,0.0,0.0,83,0.00,,,0.00,WUHU216HW,2013-03-07 07:01:00,
2013-03-07 02:06:00,28.9,24.1,0.00,West,270,0.0,0.0,82,0.00,,,0.00,WUHU216HW,2013-03-07 07:06:00,
2013-03-07 02:11:00,28.9,23.9,0.00,West,270,0.0,0.0,82,0.00,,,0.00,WUHU216HW,2013-03-07 07:11:00,
2013-03-07 02:16:00,28.9,24.1,0.00,West,270,0.0,0.0,82,0.00,,,0.00,WUHU216HW,2013-03-07 07:16:00,
2013-03-07 02:21:00,28.9,24.1,0.00,West,270,0.0,0.0,82,0.00,,,0.00,WUHU216HW,2013-03-07 07:21:00,
2013-03-07 02:26:00,28.9,24.4,0.00,West,270,0.0,0.0,83,0.00,,,0.00,WUHU216HW,2013-03-07 07:26:00,
2013-03-07 02:31:00,28.9,24.4,0.00,South,180,0.0,0.0,83,0.00,,,0.00,WUHU216HW,2013-03-07 07:31:00,
2013-03-07 02:36:00,28.9,24.4,0.00,South,180,0.0,0.0,82,0.00,,,0.00,WUHU216HW,2013-03-07 07:36:00,
2013-03-07 02:41:00,28.9,24.4,0.00,NW,315,0.0,0.0,82,0.00,,,0.00,WUHU216HW,2013-03-07 07:41:00,
2013-03-07 02:47:00,28.9,24.4,0.00,West,270,0.0,0.0,83,0.00,,,0.00,WUHU216HW,2013-03-07 07:47:00,
2013-03-07 02:52:00,28.9,24.4,0.00,WSW,248,0.0,0.0,83,0.00,,,0.00,WUHU216HW,2013-03-07 07:52:00,
2013-03-07 02:57:00,28.9,24.1,0.00,WSW,248,0.0,0.0,82,0.00,,,0.00,WUHU216HW,2013-03-07 07:57:00,
2013-03-07 03:02:00,28.9,24.1,0.00,WSW,248,0.0,0.0,82,0.00,,,0.00,WUHU216HW,2013-03-07 08:02:00,
2013-03-07 03:07:00,28.9,23.9,0.00,WSW,248,0.0,0.0,82,0.00,,,0.00,WUHU216HW,2013-03-07 08:07:00,
2013-03-07 03:12:00,28.7,23.9,0.00,SW,225,0.0,0.0,82,0.00,,,0.00,WUHU216HW,2013-03-07 08:12:00,
2013-03-07 03:17:00,28.7,23.9,0.00,SW,225,0.0,0.0,82,0.00,,,0.00,WUHU216HW,2013-03-07 08:17:00,
2013-03-07 03:22:00,28.7,24.2,0.00,SW,225,0.0,0.0,83,0.00,,,0.00,WUHU216HW,2013-03-07 08:22:00,
2013-03-07 03:27:00,28.7,24.2,0.00,WNW,293,0.0,0.0,83,0.00,,,0.00,WUHU216HW,2013-03-07 08:27:00,
2013-03-07 03:32:00,28.7,24.2,0.00,SE,135,0.0,0.0,83,0.00,,,0.00,WUHU216HW,2013-03-07 08:32:00,
2013-03-07 03:38:00,28.7,24.2,0.00,SE,135,0.0,0.0,83,0.00,,,0.00,WUHU216HW,2013-03-07 08:38:00,
2013-03-07 03:43:00,28.7,24.2,0.00,SSE,158,0.0,0.0,83,0.00,,,0.00,WUHU216HW,2013-03-07 08:43:00,
2013-03-07 03:48:00,28.7,24.2,0.00,SE,135,0.0,0.0,83,0.00,,,0.00,WUHU216HW,2013-03-07 08:48:00,
2013-03-07 03:53:00,28.7,24.2,0.00,North,0,0.0,0.0,83,0.00,,,0.00,WUHU216HW,2013-03-07 08:53:00,
2013-03-07 03:58:00,28.7,24.2,0.00,SSE,158,0.0,0.0,83,0.00,,,0.00,WUHU216HW,2013-03-07 08:58:00,
2013-03-07 04:03:00,28.7,24.2,0.00,WSW,248,0.0,0.0,83,0.00,,,0.00,WUHU216HW,2013-03-07 09:03:00,
2013-03-07 04:08:00,28.7,24.2,0.00,SSE,158,0.0,0.0,83,0.00,,,0.00,WUHU216HW,2013-03-07 09:08:00,
2013-03-07 04:13:00,28.7,24.0,0.00,SSE,158,1.5,1.5,83,0.00,,,0.00,WUHU216HW,2013-03-07 09:13:00,
2013-03-07 04:18:00,28.7,24.2,0.00,SW,225,0.0,1.5,83,0.00,,,0.00,WUHU216HW,2013-03-07 09:18:00,
2013-03-07 04:23:00,28.5,24.0,0.00,SE,135,0.0,0.6,83,0.00,,,0.00,WUHU216HW,2013-03-07 09:23:00,
2013-03-07 04:28:00,28.5,24.0,0.00,West,270,0.0,0.0,83,0.00,,,0.00,WUHU216HW,2013-03-07 09:28:00,
2013-03-07 04:33:00,28.7,24.2,0.00,West,270,0.0,0.0,83,0.00,,,0.00,WUHU216HW,2013-03-07 09:33:00,
2013-03-07 04:38:00,28.5,24.0,0.00,SSE,158,0.0,0.0,83,0.00,,,0.00,WUHU216HW,2013-03-07 09:38:00,
2013-03-07 04:43:00,28.7,24.2,0.00,South,180,0.0,2.6,83,0.00,,,0.00,WUHU216HW,2013-03-07 09:43:00,
2013-03-07 04:48:00,28.7,24.2,0.00,South,180,0.0,2.6,83,0.00,,,0.00,WUHU216HW,2013-03-07 09:48:00,
2013-03-07 04:53:00,28.7,24.2,0.00,SSE,158,0.0,2.4,83,0.00,,,0.00,WUHU216HW,2013-03-07 09:53:00,
2013-03-07 04:58:00,28.7,24.2,0.00,SSE,158,0.0,2.4,83,0.00,,,0.00,WUHU216HW,2013-03-07 09:58:00,
2013-03-07 05:03:00,28.7,24.2,0.00,SE,135,0.0,0.0,83,0.00,,,0.00,WUHU216HW,2013-03-07 10:03:00,
2013-03-07 05:08:00,28.7,24.2,0.00,SE,135,0.0,0.0,83,0.00,,,0.00,WUHU216HW,2013-03-07 10:08:00,
2013-03-07 05:13:00,28.7,24.2,0.00,SSE,158,0.0,0.0,83,0.00,,,0.00,WUHU216HW,2013-03-07 10:13:00,
2013-03-07 05:18:00,28.7,24.2,0.00,SSE,158,0.0,0.0,83,0.00,,,0.00,WUHU216HW,2013-03-07 10:18:00,
2013-03-07 05:23:00,28.7,24.2,0.00,SSE,158,0.0,0.0,83,0.00,,,0.00,WUHU216HW,2013-03-07 10:23:00,
2013-03-07 05:28:00,28.7,24.2,0.00,WNW,293,0.0,0.0,83,0.00,,,0.00,WUHU216HW,2013-03-07 10:28:00,
2013-03-07 05:33:00,28.7,24.2,0.00,NE,45,0.0,0.0,83,0.00,,,0.00,WUHU216HW,2013-03-07 10:33:00,
2013-03-07 05:38:00,28.7,24.2,0.00,ESE,113,0.0,0.0,83,0.00,,,0.00,WUHU216HW,2013-03-07 10:38:00,
2013-03-07 05:43:00,28.7,24.2,0.00,ESE,113,0.0,0.0,83,0.00,,,0.00,WUHU216HW,2013-03-07 10:43:00,
2013-03-07 05:48:00,28.7,24.2,0.00,SE,135,2.6,2.6,83,0.00,,,0.00,WUHU216HW,2013-03-07 10:48:00,
2013-03-07 05:53:00,28.7,24.2,0.00,SE,135,0.0,2.6,83,0.00,,,0.00,WUHU216HW,2013-03-07 10:53:00,
2013-03-07 05:58:00,28.7,24.2,0.00,SE,135,0.0,0.0,83,0.00,,,0.00,WUHU216HW,2013-03-07 10:58:00,
2013-03-07 06:03:00,28.7,24.2,0.00,SE,135,0.0,0.0,83,0.00,,,0.00,WUHU216HW,2013-03-07 11:03:00,
2013-03-07 06:08:00,28.7,24.2,0.00,SE,135,0.0,0.0,83,0.00,,,0.00,WUHU216HW,2013-03-07 11:08:00,
2013-03-07 06:13:00,28.7,24.2,0.00,SE,135,0.0,0.0,83,0.00,,,0.00,WUHU216HW,2013-03-07 11:13:00,
2013-03-07 06:18:00,28.7,24.2,0.00,SE,135,0.0,0.0,83,0.00,,,0.00,WUHU216HW,2013-03-07 11:18:00,
2013-03-07 06:23:00,28.7,24.2,0.00,SE,135,0.0,0.0,83,0.00,,,0.00,WUHU216HW,2013-03-07 11:23:00,
2013-03-07 06:28:00,28.7,24.2,0.00,NNW,338,0.0,0.0,83,0.00,,,0.00,WUHU216HW,2013-03-07 11:28:00,
2013-03-07 06:33:00,28.7,24.2,0.00,NNW,338,0.0,0.0,83,0.00,,,0.00,WUHU216HW,2013-03-07 11:33:00,
2013-03-07 06:38:00,28.7,24.2,0.00,NNW,338,0.0,0.0,83,0.00,,,0.00,WUHU216HW,2013-03-07 11:38:00,
2013-03-07 06:43:00,28.7,23.9,0.00,North,0,0.0,0.0,82,0.00,,,0.00,WUHU216HW,2013-03-07 11:43:00,
2013-03-07 06:48:00,28.7,23.9,0.00,SSE,158,0.0,0.0,82,0.00,,,0.00,WUHU216HW,2013-03-07 11:48:00,
2013-03-07 06:53:00,28.7,23.9,0.00,WSW,248,0.0,0.0,82,0.00,,,0.00,WUHU216HW,2013-03-07 11:53:00,
2013-03-07 06:58:00,28.7,23.9,0.00,WSW,248,0.0,0.0,82,0.00,,,0.00,WUHU216HW,2013-03-07 11:58:00,
2013-03-07 07:04:00,28.7,23.9,0.00,SSE,158,0.0,0.0,82,0.00,,,0.00,WUHU216HW,2013-03-07 12:04:00,
2013-03-07 07:09:00,28.7,23.9,0.00,SSE,158,0.0,0.0,82,0.00,,,0.00,WUHU216HW,2013-03-07 12:09:00,
2013-03-07 07:14:00,28.7,23.9,0.00,SSE,158,0.0,0.0,82,0.00,,,0.00,WUHU216HW,2013-03-07 12:14:00,
2013-03-07 07:19:00,28.7,23.9,0.00,SSE,158,0.0,0.0,82,0.00,,,0.00,WUHU216HW,2013-03-07 12:19:00,
2013-03-07 07:24:00,28.9,24.1,0.00,South,180,0.0,0.0,82,0.00,,,0.00,WUHU216HW,2013-03-07 12:24:00,
2013-03-07 07:29:00,28.9,24.1,0.00,West,270,0.0,0.0,82,0.00,,,0.00,WUHU216HW,2013-03-07 12:29:00,
2013-03-07 07:34:00,28.9,24.1,0.00,SSE,158,0.0,3.1,82,0.00,,,0.00,WUHU216HW,2013-03-07 12:34:00,
2013-03-07 07:39:00,28.9,23.8,0.00,SSE,158,0.0,6.0,81,0.00,,,0.00,WUHU216HW,2013-03-07 12:39:00,
2013-03-07 07:44:00,28.9,23.8,0.00,SSE,158,0.0,6.0,81,0.00,,,0.00,WUHU216HW,2013-03-07 12:44:00,
2013-03-07 07:49:00,28.9,23.8,0.00,South,180,0.0,2.0,81,0.00,,,0.00,WUHU216HW,2013-03-07 12:49:00,
2013-03-07 07:54:00,29.1,24.0,0.00,South,180,0.0,2.0,81,0.00,,,0.00,WUHU216HW,2013-03-07 12:54:00,
2013-03-07 07:59:00,29.1,24.0,0.00,SE,135,0.0,0.0,81,0.00,,,0.00,WUHU216HW,2013-03-07 12:59:00,
2013-03-07 08:04:00,29.1,24.2,0.00,NE,45,0.0,0.0,82,0.00,,,0.00,WUHU216HW,2013-03-07 13:04:00,
2013-03-07 08:09:00,29.1,24.2,0.00,SE,135,0.0,0.0,82,0.00,,,0.00,WUHU216HW,2013-03-07 13:09:00,
2013-03-07 08:14:00,29.3,24.1,0.00,NNW,338,0.0,2.2,81,0.00,,,0.00,WUHU216HW,2013-03-07 13:14:00,
2013-03-07 08:19:00,29.3,24.1,0.00,SE,135,0.0,2.2,81,0.00,,,0.00,WUHU216HW,2013-03-07 13:19:00,
2013-03-07 08:24:00,29.3,24.1,0.00,South,180,0.0,0.0,81,0.00,,,0.00,WUHU216HW,2013-03-07 13:24:00,
2013-03-07 08:29:00,29.3,24.1,0.00,SSE,158,0.0,1.7,81,0.00,,,0.00,WUHU216HW,2013-03-07 13:29:00,
2013-03-07 08:34:00,29.3,24.1,0.00,SSE,158,0.0,4.2,81,0.00,,,0.00,WUHU216HW,2013-03-07 13:34:00,
2013-03-07 08:39:00,29.4,24.3,0.00,SSE,158,0.0,4.2,81,0.00,,,0.00,WUHU216HW,2013-03-07 13:39:00,
2013-03-07 08:44:00,29.4,24.3,0.00,NW,315,0.0,0.0,81,0.00,,,0.00,WUHU216HW,2013-03-07 13:44:00,
2013-03-07 08:49:00,29.6,24.5,0.00,NW,315,0.0,0.0,81,0.00,,,0.00,WUHU216HW,2013-03-07 13:49:00,
2013-03-07 08:54:00,29.8,24.7,0.00,NW,315,3.1,3.1,81,0.00,,,0.00,WUHU216HW,2013-03-07 13:54:00,
2013-03-07 08:59:00,29.8,24.7,0.00,NW,315,1.5,3.1,81,0.00,,,0.00,WUHU216HW,2013-03-07 13:59:00,
2013-03-07 09:04:00,29.8,24.7,0.00,West,270,0.0,1.5,81,0.00,,,0.00,WUHU216HW,2013-03-07 14:04:00,
2013-03-07 09:09:00,30.0,24.9,0.00,North,0,0.0,0.0,81,0.00,,,0.00,WUHU216HW,2013-03-07 14:09:00,
2013-03-07 09:14:00,30.0,24.9,0.00,South,180,0.0,0.0,81,0.00,,,0.00,WUHU216HW,2013-03-07 14:14:00,
2013-03-07 09:19:00,30.0,24.9,0.00,WNW,293,1.7,1.7,81,0.00,,,0.00,WUHU216HW,2013-03-07 14:19:00,
2013-03-07 09:24:00,30.0,24.9,0.00,SSE,158,0.0,1.7,81,0.00,,,0.00,WUHU216HW,2013-03-07 14:24:00,
2013-03-07 09:29:00,30.0,24.9,0.00,WNW,293,0.0,3.3,81,0.00,,,0.00,WUHU216HW,2013-03-07 14:29:00,
2013-03-07 09:34:00,30.2,25.0,0.00,SSW,203,0.0,3.3,81,0.00,,,0.00,WUHU216HW,2013-03-07 14:34:00,
2013-03-07 09:39:00,30.2,25.0,0.00,SSW,203,0.0,2.2,81,0.00,,,0.00,WUHU216HW,2013-03-07 14:39:00,
2013-03-07 09:44:00,30.5,25.4,0.00,SSW,203,1.5,1.5,81,0.00,,,0.00,WUHU216HW,2013-03-07 14:44:00,
2013-03-07 09:49:00,30.7,25.6,0.00,SSE,158,0.0,3.1,81,0.00,,,0.00,WUHU216HW,2013-03-07 14:49:00,
2013-03-07 09:54:00,30.9,25.8,0.00,SSE,158,0.0,3.1,81,0.00,,,0.00,WUHU216HW,2013-03-07 14:54:00,
2013-03-07 09:59:00,31.2,26.1,0.00,SSE,158,0.0,2.9,81,0.00,,,0.00,WUHU216HW,2013-03-07 14:59:00,
2013-03-07 10:05:00,31.4,26.0,0.00,SSE,158,0.0,2.9,80,0.00,,,0.00,WUHU216HW,2013-03-07 15:05:00,
2013-03-07 10:10:00,31.8,26.4,0.00,WNW,293,0.0,0.0,80,0.00,,,0.00,WUHU216HW,2013-03-07 15:10:00,
2013-03-07 10:15:00,32.0,26.7,0.00,NW,315,2.9,2.9,80,0.00,,,0.00,WUHU216HW,2013-03-07 15:15:00,
2013-03-07 10:20:00,32.1,26.7,0.00,WNW,293,0.0,2.9,80,0.00,,,0.00,WUHU216HW,2013-03-07 15:20:00,
2013-03-07 10:25:00,32.3,26.6,0.00,WSW,248,0.0,0.0,79,0.00,,,0.00,WUHU216HW,2013-03-07 15:25:00,
2013-03-07 10:30:00,32.5,26.7,0.00,West,270,0.0,0.0,79,0.00,,,0.00,WUHU216HW,2013-03-07 15:30:00,
2013-03-07 10:35:00,32.7,26.9,0.00,NW,315,0.0,0.0,79,0.00,,,0.00,WUHU216HW,2013-03-07 15:35:00,
2013-03-07 10:40:00,32.9,27.0,0.00,NE,45,0.0,2.2,78,0.00,,,0.00,WUHU216HW,2013-03-07 15:40:00,
2013-03-07 10:45:00,32.9,26.7,0.00,NNW,338,1.5,2.2,78,0.00,,,0.00,WUHU216HW,2013-03-07 15:45:00,
2013-03-07 10:50:00,33.0,26.9,0.00,WSW,248,0.0,1.5,78,0.00,,,0.00,WUHU216HW,2013-03-07 15:50:00,
2013-03-07 10:55:00,33.4,27.2,0.00,SSE,158,0.0,2.4,78,0.00,,,0.00,WUHU216HW,2013-03-07 15:55:00,
2013-03-07 11:00:00,33.9,27.7,0.00,SSE,158,0.0,2.4,78,0.00,,,0.00,WUHU216HW,2013-03-07 16:00:00,
2013-03-07 11:05:00,34.3,27.7,0.00,West,270,0.0,2.6,77,0.00,,,0.00,WUHU216HW,2013-03-07 16:05:00,
2013-03-07 11:10:00,34.5,27.9,0.00,ESE,113,0.0,2.6,77,0.00,,,0.00,WUHU216HW,2013-03-07 16:10:00,
2013-03-07 11:15:00,34.5,27.9,0.00,SSE,158,4.2,4.2,77,0.00,,,0.00,WUHU216HW,2013-03-07 16:15:00,
2013-03-07 11:20:00,34.3,27.7,0.00,SSE,158,0.0,4.2,77,0.00,,,0.00,WUHU216HW,2013-03-07 16:20:00,
2013-03-07 11:25:00,34.5,27.7,0.00,West,270,0.0,2.6,77,0.00,,,0.00,WUHU216HW,2013-03-07 16:25:00,
2013-03-07 11:30:00,34.7,28.1,0.00,SSE,158,0.0,2.6,77,0.00,,,0.00,WUHU216HW,2013-03-07 16:30:00,
2013-03-07 11:35:00,35.2,28.3,0.00,NNW,338,3.5,5.8,76,0.00,,,0.00,WUHU216HW,2013-03-07 16:35:00,
2013-03-07 11:40:00,35.2,28.3,0.00,SSE,158,0.0,5.8,76,0.00,,,0.00,WUHU216HW,2013-03-07 16:40:00,
2013-03-07 11:45:00,35.2,28.0,0.00,SSE,158,0.0,4.4,75,0.00,,,0.00,WUHU216HW,2013-03-07 16:45:00,
2013-03-07 11:50:00,35.2,28.3,0.00,ENE,68,2.2,4.4,76,0.00,,,0.00,WUHU216HW,2013-03-07 16:50:00,
2013-03-07 11:55:00,35.4,28.5,0.00,South,180,2.6,2.6,76,0.00,,,0.00,WUHU216HW,2013-03-07 16:55:00,
2013-03-07 12:00:00,35.4,28.5,0.00,WNW,293,2.2,2.9,76,0.00,,,0.00,WUHU216HW,2013-03-07 17:00:00,
2013-03-07 12:05:00,35.4,28.2,0.00,WNW,293,0.0,4.9,75,0.00,,,0.00,WUHU216HW,2013-03-07 17:05:00,
2013-03-07 12:10:00,35.4,28.0,0.00,NW,315,2.2,4.9,75,0.00,,,0.00,WUHU216HW,2013-03-07 17:10:00,
2013-03-07 12:15:00,35.4,28.2,0.00,WSW,248,0.0,3.3,75,0.00,,,0.00,WUHU216HW,2013-03-07 17:15:00,
2013-03-07 12:20:00,35.6,28.4,0.00,West,270,0.0,3.3,75,0.00,,,0.00,WUHU216HW,2013-03-07 17:20:00,
2013-03-07 12:25:00,35.9,28.5,0.00,South,180,0.0,4.6,75,0.00,,,0.00,WUHU216HW,2013-03-07 17:25:00,
2013-03-07 12:30:00,35.7,28.5,0.00,West,270,1.5,4.6,75,0.00,,,0.00,WUHU216HW,2013-03-07 17:30:00,
2013-03-07 12:35:00,35.9,28.7,0.00,NW,315,0.0,3.3,75,0.00,,,0.00,WUHU216HW,2013-03-07 17:35:00,
2013-03-07 12:40:00,36.3,29.1,0.00,SSE,158,0.8,1.3,75,0.00,,,0.00,WUHU216HW,2013-03-07 17:40:00,
2013-03-07 12:46:00,36.6,29.4,0.00,SSE,158,0.0,2.2,75,0.00,,,0.00,WUHU216HW,2013-03-07 17:46:00,
2013-03-07 12:51:00,37.0,29.8,0.00,SE,135,0.0,2.6,75,0.00,,,0.00,WUHU216HW,2013-03-07 17:51:00,
2013-03-07 12:56:00,37.2,30.0,0.00,SSE,158,0.0,4.4,75,0.00,,,0.00,WUHU216HW,2013-03-07 17:56:00,
2013-03-07 13:01:00,37.2,29.6,0.00,SSE,158,0.8,4.4,74,0.00,,,0.00,WUHU216HW,2013-03-07 18:01:00,
2013-03-07 13:06:00,37.4,29.8,0.00,West,270,0.0,6.2,74,0.00,,,0.00,WUHU216HW,2013-03-07 18:06:00,
2013-03-07 13:11:00,37.4,30.3,0.00,NW,315,3.5,6.2,75,0.00,,,0.00,WUHU216HW,2013-03-07 18:11:00,
2013-03-07 13:16:00,37.5,30.0,0.00,SSW,203,2.4,5.1,74,0.00,,,0.00,WUHU216HW,2013-03-07 18:16:00,
2013-03-07 13:21:00,37.5,30.0,0.00,SSE,158,0.0,5.1,74,0.00,,,0.00,WUHU216HW,2013-03-07 18:21:00,
2013-03-07 13:26:00,37.7,30.2,0.00,ENE,68,2.6,3.1,74,0.00,,,0.00,WUHU216HW,2013-03-07 18:26:00,
2013-03-07 13:31:00,37.9,30.3,0.00,SSW,203,0.0,2.6,74,0.00,,,0.00,WUHU216HW,2013-03-07 18:31:00,
2013-03-07 13:36:00,37.9,30.3,0.00,WSW,248,0.0,2.4,74,0.00,,,0.00,WUHU216HW,2013-03-07 18:36:00,
2013-03-07 13:41:00,37.9,30.0,0.00,WNW,293,0.0,2.6,73,0.00,,,0.00,WUHU216HW,2013-03-07 18:41:00,
2013-03-07 13:46:00,37.9,30.0,0.00,NW,315,7.3,7.3,73,0.00,,,0.00,WUHU216HW,2013-03-07 18:46:00,
2013-03-07 13:51:00,37.7,29.8,0.00,WNW,293,0.0,7.3,73,0.00,,,0.00,WUHU216HW,2013-03-07 18:51:00,
2013-03-07 13:56:00,37.5,29.7,0.00,WSW,248,0.0,3.8,73,0.00,,,0.00,WUHU216HW,2013-03-07 18:56:00,
2013-03-07 14:01:00,37.7,29.8,0.00,SSE,158,0.0,2.9,73,0.00,,,0.00,WUHU216HW,2013-03-07 19:01:00,
2013-03-07 14:06:00,37.5,29.7,0.00,NW,315,0.0,4.0,73,0.00,,,0.00,WUHU216HW,2013-03-07 19:06:00,
2013-03-07 14:11:00,37.2,29.3,0.00,NW,315,0.0,4.0,73,0.00,,,0.00,WUHU216HW,2013-03-07 19:11:00,
2013-03-07 14:16:00,37.2,29.3,0.00,SSW,203,2.2,2.6,73,0.00,,,0.00,WUHU216HW,2013-03-07 19:16:00,
2013-03-07 14:21:00,37.2,29.3,0.00,WSW,248,0.0,2.9,73,0.00,,,0.00,WUHU216HW,2013-03-07 19:21:00,
2013-03-07 14:26:00,37.2,29.3,0.00,West,270,2.0,3.3,73,0.00,,,0.00,WUHU216HW,2013-03-07 19:26:00,
2013-03-07 14:31:00,37.2,29.3,0.00,WNW,293,0.0,3.3,73,0.00,,,0.00,WUHU216HW,2013-03-07 19:31:00,
2013-03-07 14:36:00,37.2,29.6,0.00,South,180,2.0,3.3,74,0.00,,,0.00,WUHU216HW,2013-03-07 19:36:00,
2013-03-07 14:41:00,37.2,29.3,0.00,NW,315,0.0,3.3,73,0.00,,,0.00,WUHU216HW,2013-03-07 19:41:00,
2013-03-07 14:46:00,37.2,29.6,0.00,SSE,158,0.8,3.1,74,0.00,,,0.00,WUHU216HW,2013-03-07 19:46:00,
2013-03-07 14:52:00,37.2,29.3,0.00,WSW,248,0.0,2.4,73,0.00,,,0.00,WUHU216HW,2013-03-07 19:52:00,
2013-03-07 14:57:00,37.2,29.3,0.00,WSW,248,0.0,1.3,73,0.00,,,0.00,WUHU216HW,2013-03-07 19:57:00,
2013-03-07 15:02:00,37.2,29.3,0.00,South,180,0.0,2.9,73,0.00,,,0.00,WUHU216HW,2013-03-07 20:02:00,
2013-03-07 15:07:00,36.8,29.0,0.00,West,270,0.0,4.0,73,0.00,,,0.00,WUHU216HW,2013-03-07 20:07:00,
2013-03-07 15:12:00,36.6,28.8,0.00,SSW,203,1.7,4.0,73,0.00,,,0.00,WUHU216HW,2013-03-07 20:12:00,
2013-03-07 15:17:00,36.5,28.6,0.00,NNW,338,0.0,3.1,73,0.00,,,0.00,WUHU216HW,2013-03-07 20:17:00,
2013-03-07 15:22:00,36.5,28.6,0.00,SW,225,2.0,3.1,73,0.00,,,0.00,WUHU216HW,2013-03-07 20:22:00,
2013-03-07 15:27:00,36.5,28.6,0.00,SSE,158,0.0,2.4,73,0.00,,,0.00,WUHU216HW,2013-03-07 20:27:00,
2013-03-07 15:32:00,36.5,28.6,0.00,SSE,158,1.1,4.2,73,0.00,,,0.00,WUHU216HW,2013-03-07 20:32:00,
2013-03-07 15:37:00,36.3,28.7,0.00,West,270,0.0,4.2,74,0.00,,,0.00,WUHU216HW,2013-03-07 20:37:00,
2013-03-07 15:42:00,36.5,28.9,0.00,WNW,293,0.0,2.4,74,0.00,,,0.00,WUHU216HW,2013-03-07 20:42:00,
2013-03-07 15:47:00,36.5,28.6,0.00,SW,225,0.0,2.9,73,0.00,,,0.00,WUHU216HW,2013-03-07 20:47:00,
2013-03-07 15:52:00,36.3,28.4,0.00,NNW,338,0.0,8.0,73,0.00,,,0.00,WUHU216HW,2013-03-07 20:52:00,
2013-03-07 15:57:00,36.1,28.2,0.00,SSW,203,0.0,8.0,73,0.00,,,0.00,WUHU216HW,2013-03-07 20:57:00,
2013-03-07 16:02:00,35.9,28.1,0.00,SSE,158,0.0,4.4,73,0.00,,,0.00,WUHU216HW,2013-03-07 21:02:00,
2013-03-07 16:07:00,36.1,28.6,0.00,SSE,158,3.5,4.4,74,0.00,,,0.00,WUHU216HW,2013-03-07 21:07:00,
2013-03-07 16:12:00,36.1,28.2,0.00,WSW,248,0.0,3.5,73,0.00,,,0.00,WUHU216HW,2013-03-07 21:12:00,
2013-03-07 16:17:00,36.1,28.6,0.00,WSW,248,1.5,3.1,74,0.00,,,0.00,WUHU216HW,2013-03-07 21:17:00,
2013-03-07 16:22:00,35.9,28.4,0.00,SSE,158,3.5,4.2,74,0.00,,,0.00,WUHU216HW,2013-03-07 21:22:00,
2013-03-07 16:27:00,35.7,27.9,0.00,West,270,0.0,4.2,73,0.00,,,0.00,WUHU216HW,2013-03-07 21:27:00,
2013-03-07 16:32:00,35.7,27.9,0.00,SSW,203,0.0,4.0,73,0.00,,,0.00,WUHU216HW,2013-03-07 21:32:00,
2013-03-07 16:37:00,35.4,27.8,0.00,SSW,203,0.0,4.0,74,0.00,,,0.00,WUHU216HW,2013-03-07 21:37:00,
2013-03-07 16:42:00,35.4,27.8,0.00,SW,225,1.7,2.0,74,0.00,,,0.00,WUHU216HW,2013-03-07 21:42:00,
2013-03-07 16:47:00,35.4,27.8,0.00,South,180,2.6,2.9,74,0.00,,,0.00,WUHU216HW,2013-03-07 21:47:00,
2013-03-07 16:52:00,35.4,27.8,0.00,South,180,0.0,2.9,74,0.00,,,0.00,WUHU216HW,2013-03-07 21:52:00,
2013-03-07 16:57:00,35.2,27.7,0.00,SSE,158,0.0,2.4,74,0.00,,,0.00,WUHU216HW,2013-03-07 21:57:00,
2013-03-07 17:02:00,35.2,27.7,0.00,South,180,0.8,3.1,74,0.00,,,0.00,WUHU216HW,2013-03-07 22:02:00,
2013-03-07 17:07:00,35.2,27.7,0.00,SSE,158,2.6,4.0,74,0.00,,,0.00,WUHU216HW,2013-03-07 22:07:00,
2013-03-07 17:12:00,35.0,27.5,0.00,SSE,158,0.0,4.0,74,0.00,,,0.00,WUHU216HW,2013-03-07 22:12:00,
2013-03-07 17:17:00,34.8,27.3,0.00,South,180,1.7,1.7,74,0.00,,,0.00,WUHU216HW,2013-03-07 22:17:00,
2013-03-07 17:22:00,34.7,27.1,0.00,NW,315,2.0,2.0,74,0.00,,,0.00,WUHU216HW,2013-03-07 22:22:00,
2013-03-07 17:27:00,34.3,26.8,0.00,ESE,113,2.9,3.3,74,0.00,,,0.00,WUHU216HW,2013-03-07 22:27:00,
2013-03-07 17:32:00,34.3,26.8,0.00,South,180,0.0,3.3,74,0.00,,,0.00,WUHU216HW,2013-03-07 22:32:00,
2013-03-07 17:37:00,34.3,26.8,0.00,SSW,203,0.0,2.6,74,0.00,,,0.00,WUHU216HW,2013-03-07 22:37:00,
2013-03-07 17:42:00,33.9,26.7,0.00,WNW,293,0.0,5.1,75,0.00,,,0.00,WUHU216HW,2013-03-07 22:42:00,
2013-03-07 17:47:00,33.6,26.6,0.00,South,180,0.0,5.1,75,0.00,,,0.00,WUHU216HW,2013-03-07 22:47:00,
2013-03-07 17:52:00,33.6,26.4,0.00,SSE,158,2.0,4.6,75,0.00,,,0.00,WUHU216HW,2013-03-07 22:52:00,
2013-03-07 17:57:00,33.4,26.2,0.00,South,180,0.0,2.0,75,0.00,,,0.00,WUHU216HW,2013-03-07 22:57:00,
2013-03-07 18:02:00,33.2,26.1,0.00,WSW,248,0.0,1.5,75,0.00,,,0.00,WUHU216HW,2013-03-07 23:02:00,
2013-03-07 18:07:00,33.0,25.9,0.00,SW,225,0.0,1.5,75,0.00,,,0.00,WUHU216HW,2013-03-07 23:07:00,
2013-03-07 18:12:00,32.9,25.7,0.00,WSW,248,0.0,0.0,75,0.00,,,0.00,WUHU216HW,2013-03-07 23:12:00,
2013-03-07 18:17:00,32.7,25.6,0.00,WSW,248,0.0,0.0,75,0.00,,,0.00,WUHU216HW,2013-03-07 23:17:00,
2013-03-07 18:22:00,32.7,25.9,0.00,WSW,248,0.0,0.0,76,0.00,,,0.00,WUHU216HW,2013-03-07 23:22:00,
2013-03-07 18:27:00,32.5,25.7,0.00,SW,225,0.0,5.5,76,0.00,,,0.00,WUHU216HW,2013-03-07 23:27:00,
2013-03-07 18:33:00,32.3,25.6,0.00,North,0,0.0,5.5,76,0.00,,,0.00,WUHU216HW,2013-03-07 23:33:00,
2013-03-07 18:38:00,32.1,25.4,0.00,SSW,203,1.3,2.4,76,0.00,,,0.00,WUHU216HW,2013-03-07 23:38:00,
2013-03-07 18:43:00,32.1,25.4,0.00,South,180,0.0,1.3,76,0.00,,,0.00,WUHU216HW,2013-03-07 23:43:00,
2013-03-07 18:48:00,31.8,25.1,0.00,WNW,293,0.0,0.8,76,0.00,,,0.00,WUHU216HW,2013-03-07 23:48:00,
2013-03-07 18:53:00,31.8,25.1,0.00,South,180,1.7,1.7,76,0.00,,,0.00,WUHU216HW,2013-03-07 23:53:00,
2013-03-07 18:58:00,31.6,24.9,0.00,SSW,203,0.0,1.7,76,0.00,,,0.00,WUHU216HW,2013-03-07 23:58:00,
2013-03-07 19:03:00,31.6,24.9,0.00,SSW,203,0.0,0.8,76,0.00,,,0.00,WUHU216HW,2013-03-08 00:03:00,
2013-03-07 19:08:00,31.6,25.2,0.00,SSW,203,0.0,0.0,77,0.00,,,0.00,WUHU216HW,2013-03-08 00:08:00,
2013-03-07 19:13:00,31.2,24.9,0.00,South,180,0.0,0.0,77,0.00,,,0.00,WUHU216HW,2013-03-08 00:13:00,
2013-03-07 19:18:00,31.2,24.9,0.00,South,180,0.0,0.0,77,0.00,,,0.00,WUHU216HW,2013-03-08 00:18:00,
2013-03-07 19:23:00,31.2,24.9,0.00,South,180,0.0,0.0,77,0.00,,,0.00,WUHU216HW,2013-03-08 00:23:00,
2013-03-07 19:28:00,31.2,24.9,0.00,South,180,0.0,0.0,77,0.00,,,0.00,WUHU216HW,2013-03-08 00:28:00,
2013-03-07 19:33:00,31.1,24.7,0.00,South,180,0.0,0.0,77,0.00,,,0.00,WUHU216HW,2013-03-08 00:33:00,
2013-03-07 19:38:00,31.1,24.7,0.00,South,180,0.0,0.0,77,0.00,,,0.00,WUHU216HW,2013-03-08 00:38:00,
2013-03-07 19:43:00,31.1,24.7,0.00,South,180,0.0,0.0,77,0.00,,,0.00,WUHU216HW,2013-03-08 00:43:00,
2013-03-07 19:48:00,30.9,24.5,0.00,East,90,0.0,2.4,77,0.00,,,0.00,WUHU216HW,2013-03-08 00:48:00,
2013-03-07 19:54:00,30.9,24.5,0.00,NNW,338,0.0,2.4,77,0.00,,,0.00,WUHU216HW,2013-03-08 00:54:00,
2013-03-07 19:59:00,30.9,24.8,0.00,NE,45,0.0,0.0,78,0.00,,,0.00,WUHU216HW,2013-03-08 00:59:00,
2013-03-07 20:04:00,30.9,24.8,0.00,SSE,158,0.0,0.0,78,0.00,,,0.00,WUHU216HW,2013-03-08 01:04:00,
2013-03-07 20:09:00,30.7,24.6,0.00,WNW,293,0.0,0.0,78,0.00,,,0.00,WUHU216HW,2013-03-08 01:09:00,
2013-03-07 20:14:00,30.7,24.6,0.00,WNW,293,0.0,0.0,78,0.00,,,0.00,WUHU216HW,2013-03-08 01:14:00,
2013-03-07 20:19:00,30.7,24.6,0.00,WSW,248,0.0,0.0,78,0.00,,,0.00,WUHU216HW,2013-03-08 01:19:00,
2013-03-07 20:24:00,30.7,24.6,0.00,WSW,248,0.0,0.0,78,0.00,,,0.00,WUHU216HW,2013-03-08 01:24:00,
2013-03-07 20:29:00,30.7,24.6,0.00,WSW,248,0.0,0.0,78,0.00,,,0.00,WUHU216HW,2013-03-08 01:29:00,
2013-03-07 20:34:00,30.7,24.6,0.00,WSW,248,0.0,0.0,78,0.00,,,0.00,WUHU216HW,2013-03-08 01:34:00,
2013-03-07 20:39:00,30.7,24.6,0.00,SW,225,0.0,0.0,78,0.00,,,0.00,WUHU216HW,2013-03-08 01:39:00,
2013-03-07 20:44:00,30.7,24.6,0.00,SSE,158,0.0,0.0,78,0.00,,,0.00,WUHU216HW,2013-03-08 01:44:00,
2013-03-07 20:49:00,30.7,24.6,0.00,WSW,248,0.0,0.0,78,0.00,,,0.00,WUHU216HW,2013-03-08 01:49:00,
2013-03-07 20:54:00,30.5,24.5,0.00,WSW,248,0.0,0.0,78,0.00,,,0.00,WUHU216HW,2013-03-08 01:54:00,
2013-03-07 20:59:00,30.5,24.5,0.00,West,270,0.0,0.0,78,0.00,,,0.00,WUHU216HW,2013-03-08 01:59:00,
2013-03-07 21:04:00,30.5,24.5,0.00,WSW,248,0.0,0.0,78,0.00,,,0.00,WUHU216HW,2013-03-08 02:04:00,
2013-03-07 21:09:00,30.5,24.5,0.00,SSW,203,0.0,1.1,78,0.00,,,0.00,WUHU216HW,2013-03-08 02:09:00,
2013-03-07 21:14:00,30.5,24.5,0.00,NW,315,0.0,1.1,78,0.00,,,0.00,WUHU216HW,2013-03-08 02:14:00,
2013-03-07 21:19:00,30.5,24.5,0.00,WNW,293,0.0,1.7,78,0.00,,,0.00,WUHU216HW,2013-03-08 02:19:00,
2013-03-07 21:24:00,30.5,24.5,0.00,NW,315,0.0,1.7,78,0.00,,,0.00,WUHU216HW,2013-03-08 02:24:00,
2013-03-07 21:29:00,30.3,24.3,0.00,North,0,0.0,0.0,78,0.00,,,0.00,WUHU216HW,2013-03-08 02:29:00,
2013-03-07 21:34:00,30.3,24.3,0.00,WNW,293,0.0,0.0,78,0.00,,,0.00,WUHU216HW,2013-03-08 02:34:00,
2013-03-07 21:39:00,30.3,24.3,0.00,WNW,293,0.0,0.0,78,0.00,,,0.00,WUHU216HW,2013-03-08 02:39:00,
2013-03-07 21:44:00,30.3,24.3,0.00,WNW,293,0.0,0.0,78,0.00,,,0.00,WUHU216HW,2013-03-08 02:44:00,
2013-03-07 21:49:00,30.3,24.3,0.00,NW,315,0.0,0.0,78,0.00,,,0.00,WUHU216HW,2013-03-08 02:49:00,
2013-03-07 21:54:00,30.3,24.3,0.00,NW,315,0.0,0.0,78,0.00,,,0.00,WUHU216HW,2013-03-08 02:54:00,
2013-03-07 21:59:00,30.3,24.3,0.00,NW,315,0.0,0.0,78,0.00,,,0.00,WUHU216HW,2013-03-08 02:59:00,
2013-03-07 22:04:00,30.3,24.1,0.00,NW,315,0.0,0.0,78,0.00,,,0.00,WUHU216HW,2013-03-08 03:04:00,
2013-03-07 22:09:00,30.2,24.1,0.00,NW,315,0.0,0.0,78,0.00,,,0.00,WUHU216HW,2013-03-08 03:09:00,
2013-03-07 22:14:00,30.0,24.1,0.00,NW,315,0.0,0.0,78,0.00,,,0.00,WUHU216HW,2013-03-08 03:14:00,
2013-03-07 22:19:00,30.0,23.9,0.00,NW,315,0.0,0.0,78,0.00,,,0.00,WUHU216HW,2013-03-08 03:19:00,
2013-03-07 22:24:00,30.0,23.9,0.00,NW,315,0.0,0.0,78,0.00,,,0.00,WUHU216HW,2013-03-08 03:24:00,
2013-03-07 22:29:00,30.0,23.9,0.00,NW,315,0.0,0.0,78,0.00,,,0.00,WUHU216HW,2013-03-08 03:29:00,
2013-03-07 22:34:00,30.0,23.9,0.00,NW,315,0.0,0.0,78,0.00,,,0.00,WUHU216HW,2013-03-08 03:34:00,
2013-03-07 22:39:00,30.0,23.9,0.00,NW,315,0.0,0.0,78,0.00,,,0.00,WUHU216HW,2013-03-08 03:39:00,
2013-03-07 22:44:00,30.0,23.9,0.00,NW,315,0.0,0.0,78,0.00,,,0.00,WUHU216HW,2013-03-08 03:44:00,
2013-03-07 22:49:00,30.0,23.9,0.00,NW,315,0.0,0.0,78,0.00,,,0.00,WUHU216HW,2013-03-08 03:49:00,
2013-03-07 22:54:00,30.0,23.9,0.00,NW,315,0.0,0.0,78,0.00,,,0.00,WUHU216HW,2013-03-08 03:54:00,
2013-03-07 23:00:00,30.0,23.9,0.00,NW,315,0.0,0.0,78,0.00,,,0.00,WUHU216HW,2013-03-08 04:00:00,
2013-03-07 23:05:00,29.8,23.7,0.00,NW,315,0.0,0.0,78,0.00,,,0.00,WUHU216HW,2013-03-08 04:05:00,
2013-03-07 23:10:00,29.8,23.7,0.00,NW,315,0.0,0.0,78,0.00,,,0.00,WUHU216HW,2013-03-08 04:10:00,
2013-03-07 23:15:00,29.8,23.7,0.00,NW,315,0.0,0.0,78,0.00,,,0.00,WUHU216HW,2013-03-08 04:15:00,
2013-03-07 23:20:00,29.8,23.7,0.00,NW,315,0.0,0.0,78,0.00,,,0.00,WUHU216HW,2013-03-08 04:20:00,
2013-03-07 23:25:00,29.8,23.7,0.00,NW,315,0.0,0.0,78,0.00,,,0.00,WUHU216HW,2013-03-08 04:25:00,
2013-03-07 23:30:00,29.4,23.4,0.00,NW,315,0.0,0.0,78,0.00,,,0.00,WUHU216HW,2013-03-08 04:30:00,
2013-03-07 23:35:00,29.4,23.7,0.00,NW,315,0.0,0.0,79,0.00,,,0.00,WUHU216HW,2013-03-08 04:35:00,
2013-03-07 23:40:00,29.3,23.5,0.00,NW,315,0.0,0.0,79,0.00,,,0.00,WUHU216HW,2013-03-08 04:40:00,
2013-03-07 23:45:00,29.3,23.5,0.00,NW,315,0.0,0.0,79,0.00,,,0.00,WUHU216HW,2013-03-08 04:45:00,
2013-03-07 23:50:00,29.3,23.5,0.00,NW,315,0.0,0.0,79,0.00,,,0.00,WUHU216HW,2013-03-08 04:50:00,
2013-03-07 23:55:00,29.1,23.3,0.00,North,0,0.0,0.0,79,0.00,,,0.00,WUHU216HW,2013-03-08 04:55:00,